This demonstration page uses our WeatherBlox Daily Observations layout. Learn more.

Left ArrowRight Arrow

34.16533, -84.80231

Hourly Observations for December 8, 2017

Temp ( °F °C ) Dew Point ( °F °C ) Humidity (%) Winds ( mph kmh ) Pressure ( in mb ) Visibility ( mi km ) Precip ( " mm )
12:53 am 00:53 Cloudy 42 5.6 30 -1.1 62 62 VRB 5 7 30.07 1018 10 16 0.00 0.00
1:53 am 01:53 Cloudy 41 5 30 -1.1 65 65 VRB 3 6 30.09 1019 10 16 0.00 0.00
2:37 am 02:37 Cloudy with Light Rain 39 3.9 33 0.6 79 79 NNW 9 15 30.12 1020 9 14 0.00 0.03
2:53 am 02:53 Cloudy with Light Rain 37 2.8 35 1.7 93 93 VRB 5 7 30.11 1020 9 14 0.01 0.25
3:16 am 03:16 Cloudy with Light Rain 37 2.8 35 1.7 93 93 VRB 3 6 30.15 1021 10 16 0.00 0.03
3:53 am 03:53 Cloudy with Light Rain 36 2.2 35 1.7 97 97 NNW 6 9 30.08 1019 9 14 0.01 0.25
4:12 am 04:12 Cloudy with Light Rain 36 2.2 35 1.7 97 97 VRB 3 6 30.12 1020 7 11 0.01 0.25
4:21 am 04:21 Cloudy with Light Rain 36 2.2 35 1.7 97 97 N 7 11 30.12 1020 8 13 0.01 0.25
4:53 am 04:53 Cloudy with Light Rain 35 1.7 35 1.7 100 100 Calm 30.10 1019 7 11 0.01 0.25
5:03 am 05:03 Cloudy with Light Rain 35 1.7 35 1.7 100 100 N 5 7 30.12 1020 6 10 0.00 0.03
5:53 am 05:53 Cloudy with Mist and Fog 34 1.1 34 1.1 100 100 N 5 7 30.06 1018 5 8 0.01 0.25
6:26 am 06:26 Cloudy with Light Snow 33 0.6 33 0.6 100 100 VRB 3 6 30.09 1019 2 3 0.00 0.03
6:41 am 06:41 Cloudy with Light Snow 33 0.6 33 0.6 100 100 Calm 30.12 1020 2 2 0.01 0.25
6:53 am 06:53 Cloudy with Light Snow 32 0 32 0 100 100 Calm 30.08 1019 1 1 0.03 0.76
7:06 am 07:06 Cloudy with Light Snow 32 0 32 0 100 100 Calm 30.12 1020 1 1 0.02 0.51
7:12 am 07:12 Cloudy with Light Snow 32 0 32 0 100 100 Calm 30.12 1020 1 2 0.03 0.76
7:53 am 07:53 Cloudy with Light Snow 32 0 32 0 100 100 NNW 3 6 30.09 1019 2 2 0.05 1.27
8:10 am 08:10 Cloudy with Light Snow 32 0 32 0 100 100 NNW 3 6 30.12 1020 1 2 0.01 0.25
8:30 am 08:30 Cloudy with Snow 32 0 32 0 100 100 N 5 7 30.12 1020 1 1 0.03 0.76
8:53 am 08:53 Cloudy with Snow 32 0 32 0 100 100 N 6 9 30.09 1019 1 1 0.05 1.27
9:04 am 09:04 Cloudy with Heavy Snow 32 0 32 0 100 100 N 3 6 30.12 1020 0 0 0.03 0.76
9:41 am 09:41 Mostly Cloudy with Snow 32 0 32 0 100 100 N 7 11 30.12 1020 1 1 0.09 2.29
9:53 am 09:53 Cloudy with Snow 32 0 32 0 100 100 N 3 6 30.11 1020 1 1 0.10 2.54
10:07 am 10:07 Cloudy with Snow 32 0 32 0 100 100 NNE 5 7 30.12 1020 1 1 0.01 0.25
10:18 am 10:18 Cloudy with Snow 32 0 32 0 100 100 Calm 30.12 1020 0 0 0.03 0.76
10:32 am 10:32 Mostly Cloudy with Snow 32 0 32 0 100 100 Calm 30.12 1020 1 1 0.05 1.27
10:53 am 10:53 Cloudy with Snow 32 0 32 0 100 100 Calm 30.09 1019 1 1 0.07 1.78
11:30 am 11:30 Cloudy with Light Snow 32 0 32 0 100 100 Calm 30.15 1021 1 1 0.04 1.02
11:43 am 11:43 Cloudy with Light Snow 32 0 32 0 100 100 Calm 30.12 1020 1 1 0.05 1.27
11:53 am 11:53 Cloudy with Snow 32 0 32 0 100 100 VRB 3 6 30.09 1019 1 1 0.06 1.52
12:12 pm 12:12 Cloudy with Heavy Snow 32 0 32 0 100 100 VRB 3 6 30.12 1020 0 0 0.03 0.76
12:42 pm 12:42 Cloudy with Snow 32 0 32 0 100 100 N 6 9 30.09 1019 1 1 0.07 1.78
12:53 pm 12:53 Cloudy with Light Snow 32 0 32 0 100 100 N 6 9 30.04 1017 1 1 0.07 1.78
1:07 pm 13:07 Cloudy with Light Snow 32 0 32 0 100 100 NNW 6 9 30.09 1019 1 2 0.01 0.25
1:20 pm 13:20 Cloudy with Light Snow 32 0 32 0 100 100 NNW 6 9 30.09 1019 2 3 0.01 0.25
1:37 pm 13:37 Cloudy with Light Snow 32 0 32 0 100 100 NNW 5 7 30.06 1018 3 5 0.01 0.25
1:47 pm 13:47 Cloudy with Light Snow 32 0 30 -1 93 93 N 7 11 30.06 1018 2 3 0.01 0.25
1:48 pm 13:48 Cloudy with Light Snow 32 0 31 -0.6 96 96 N 6 9 29.99 1016 2 3 0.01 0.25
2:15 pm 14:15 Cloudy with Light Snow 32 0 32 0 100 100 N 6 9 30.03 1017 2 3 0.01 0.25
2:53 pm 14:53 Cloudy with Light Snow 32 0 32 0 100 100 NNW 5 7 29.96 1015 3 5 0.01 0.25
3:28 pm 15:28 Cloudy with Light Snow 32 0 32 0 100 100 VRB 5 7 30.03 1017 2 3 0.00 0.03
3:40 pm 15:40 Cloudy with Snow 32 0 32 0 100 100 Calm 30.03 1017 1 1 0.01 0.25
3:53 pm 15:53 Cloudy with Snow 32 0 32 0 100 100 Calm 29.97 1015 0 0 0.03 0.76
3:55 pm 15:55 Cloudy with Snow 32 0 32 0 100 100 Calm 30.03 1017 1 1 0.00 0.03
4:21 pm 16:21 Cloudy with Snow 32 0 32 0 100 100 Calm 30.03 1017 1 1 0.03 0.76
4:53 pm 16:53 Cloudy with Snow 32 0 32 0 100 100 Calm 29.97 1015 1 1 0.07 1.78
5:16 pm 17:16 Cloudy with Snow 32 0 32 0 100 100 Calm 30.03 1017 1 1 0.03 0.76
5:31 pm 17:31 Cloudy with Light Snow 32 0 32 0 100 100 Calm 30.03 1017 1 2 0.04 1.02
5:53 pm 17:53 Cloudy with Light Snow 32 0 32 0 100 100 N 5 7 29.96 1015 2 2 0.06 1.52
6:53 pm 18:53 Cloudy with Light Snow 32 0 32 0 100 100 Calm 30.00 1016 1 2 0.04 1.02
7:44 pm 19:44 Cloudy with Light Snow 32 0 32 0 100 100 Calm 30.09 1019 2 2 0.04 1.02
7:53 pm 19:53 Cloudy with Light Snow 32 0 32 0 100 100 NNW 5 7 30.01 1016 2 2 0.04 1.02
8:07 pm 20:07 Cloudy with Light Snow 32 0 32 0 100 100 N 3 6 30.06 1018 2 3 0.01 0.25
8:35 pm 20:35 Cloudy with Light Snow 32 0 32 0 100 100 NNE 5 7 30.03 1017 2 2 0.01 0.25
8:53 pm 20:53 Cloudy with Light Snow 32 0 32 0 100 100 Calm 29.96 1015 2 3 0.02 0.51
9:24 pm 21:24 Cloudy with Light Snow 32 0 32 0 100 100 VRB 3 6 30.03 1017 2 3 0.00 0.03
9:33 pm 21:33 Cloudy with Light Snow 32 0 32 0 100 100 Calm 30.00 1016 2 3 0.01 0.25
9:53 pm 21:53 Cloudy with Light Snow 31 -0.6 31 -0.6 100 100 Calm 30.00 1016 3 4 0.01 0.25
10:08 pm 22:08 Cloudy with Light Snow 32 0 32 0 100 100 Calm 30.06 1018 3 5 0.00 0.03
10:43 pm 22:43 Cloudy with Light Snow 31 -0.6 31 -0.6 100 100 Calm 30.06 1018 2 3 0.01 0.25
10:53 pm 22:53 Cloudy with Light Snow 31 -0.6 31 -0.6 100 100 Calm 30.02 1017 2 2 0.02 0.51
11:12 pm 23:12 Cloudy with Light Snow 31 -0.6 31 -0.6 100 100 Calm 30.06 1018 2 3 0.01 0.25
11:30 pm 23:30 Cloudy with Light Snow 31 -0.6 31 -0.6 100 100 N 3 6 30.06 1018 3 5 0.01 0.25
11:53 pm 23:53 Cloudy with Mist and Fog 31 -0.6 31 -0.6 100 100 NNE 6 9 29.95 1014 4 6 0.01 0.25

Powered by AerisWeather